Flag for Netherlands Weather past 2 weeks in Enschede, Netherlands

Now
57 °F

Fog.


Feels Like: 57 °F
Forecast: 50 / 66 °F
Wind: 2 mph from Southwest

Location: Deelen

Current Time: Aug 31, 2014 at 10:16:24 AM

Latest Report: Aug 31, 2014 at 9:55 AM


Visibility: 3 mi

Pressure: 29.95 "Hg

Humidity: 100%

Dew point: 57 °F

Location of EnschedeLocation

Historic Weather in Enschede — Graph

°F

Enschede temperature yesterday

Maximum temperature yesterday: 64 °F (at 4:55 PM)
Minimum temperature yesterday: 54 °F (at 11:25 PM)
Average temperature yesterday: 60 °F

Past Weeks' High & Low Weather Summary

 TemperatureHumidityPressure
High70 °F (Aug 27, 3:55 PM)100% (Aug 17, 4:25 PM)30.09 "Hg (Aug 17, 4:25 PM)
Low43 °F (Aug 25, 12:55 AM)49% (Aug 23, 5:55 PM)29.62 "Hg (Aug 18, 2:55 AM)
Average56 °F86%29.90 "Hg
* Reported Aug 16 8:25 AM — Aug 31 8:55 AM, Enschede, Weather by CustomWeather, © 2014

Note: Actual official high and low records may vary slightly from our data, if they occured in-between our weather recording intervals... More about our weather records

Advertising

Enschede weather history for previous 24 hours

 ConditionsComfort  
Time TempWeatherWind HumidityBarometerVisibility
8:55 AM
Aug 31
55 °FFog.2 mph100%29.92 "Hg2 mi
8:25 AM55 °FThunderstorms. Fog.6 mph100%29.92 "Hg1 mi
7:55 AM55 °FFog.3 mph100%29.92 "Hg1 mi
7:25 AM54 °FFog.3 mph100%29.92 "Hg0 mi
6:55 AM55 °FFog.2 mph100%29.92 "Hg1 mi
6:25 AM55 °FFog.5 mph100%29.92 "Hg2 mi
5:55 AM54 °FFog.6 mph100%29.92 "Hg2 mi
5:25 AM54 °FFog.5 mph100%29.92 "Hg2 mi
4:55 AM55 °FFog.5 mph100%29.95 "Hg2 mi
4:25 AM55 °FFog.8 mph100%29.95 "Hg4 mi
3:55 AM55 °FFog.5 mph100%29.95 "Hg4 mi
3:25 AM55 °FFog.5 mph100%29.95 "Hg5 mi
2:55 AM55 °FFog.5 mph100%29.95 "Hg6 mi
2:25 AM55 °FOvercast.6 mph94%29.95 "HgN/A
1:55 AM55 °FOvercast.6 mph94%29.95 "HgN/A
1:25 AM54 °FOvercast.2 mph100%29.98 "HgN/A
12:55 AM54 °FFog.2 mph100%29.98 "Hg5 mi
12:25 AM54 °FFog.2 mph100%29.98 "Hg6 mi
11:55 PM
Aug 30
54 °FFog.2 mph100%29.98 "Hg6 mi
11:25 PM54 °FPartly cloudy.2 mph100%29.98 "HgN/A
10:55 PM55 °FPassing clouds.2 mph94%29.98 "HgN/A
10:25 PM55 °FPassing clouds.3 mph100%29.98 "HgN/A
9:55 PM55 °FFog.3 mph100%29.98 "Hg5 mi
9:25 PM57 °FPartly sunny.3 mph94%29.98 "HgN/A
8:55 PM59 °FMostly cloudy.6 mph88%29.95 "HgN/A
7:55 PM59 °FOvercast.6 mph88%29.95 "HgN/A
7:25 PM61 °FPartly sunny.7 mph77%29.95 "HgN/A
6:55 PM63 °FPassing clouds.9 mph77%29.95 "HgN/A
6:25 PM61 °FPartly sunny.10 mph83%29.95 "HgN/A
5:55 PM63 °FBroken clouds.13 mph88%29.95 "HgN/A
5:25 PM63 °FBroken clouds.13 mph88%29.95 "HgN/A
4:55 PM64 °FBroken clouds.12 mph88%29.95 "HgN/A
4:25 PM63 °FSprinkles. Partly sunny.8 mph94%29.95 "HgN/A
3:55 PM63 °FBroken clouds.10 mph94%29.95 "HgN/A
3:25 PM63 °FDrizzle. Broken clouds.10 mph94%29.95 "Hg4 mi
2:55 PM63 °FRain showers. Broken clouds.10 mph94%29.95 "Hg2 mi
2:25 PM63 °FDrizzle. Partly sunny.9 mph94%29.95 "HgN/A
1:55 PM63 °FLight rain. Broken clouds.10 mph94%29.95 "Hg3 mi
1:25 PM61 °FDrizzle. Partly sunny.9 mph100%29.95 "Hg2 mi
12:55 PM61 °FDrizzle. Partly sunny.10 mph100%29.95 "Hg2 mi
12:25 PM61 °FDrizzle. Broken clouds.12 mph100%29.95 "Hg3 mi
11:55 AM61 °FRain. Partly sunny.9 mph94%29.95 "Hg3 mi
11:25 AM61 °FLight rain. Broken clouds.9 mph94%29.95 "Hg3 mi
10:55 AM61 °FRain. Broken clouds.12 mph94%29.95 "Hg2 mi
10:25 AM61 °FMostly cloudy.8 mph94%29.95 "HgN/A
Weather by CustomWeather, © 2014

See weather overviewHow to use our weather pages